Home   Weather   Rehovot   Past weeks

Flag for Israel Past Weather in Rehovot, Israel — Yesterday and Last 2 Weeks

Now
82 °F

Sunny.


Feels Like: 85 °F
Forecast: 76 / 88 °F
Wind: 1 mph from North

Location: Ben Gurion International Airport

Current Time: Aug 20, 2017 at 9:03:08 am

Latest Report: Aug 20, 2017 at 8:20 am


Visibility: 10 mi

Pressure: 29.83 "Hg

Humidity: 58%

Dew Point: 66 °F

Location of RehovotLocation

Past Weather in Rehovot — Graph

°F

Rehovot Temperature Yesterday

Maximum temperature yesterday: 93 °F (at 11:50 am)
Minimum temperature yesterday: 75 °F (at 4:50 am)
Average temperature yesterday: 84 °F

High & Low Weather Summary for the Past Weeks

 TemperatureHumidityPressure
High93 °F (Aug 19, 11:50 am)89% (Aug 14, 3:50 am)29.86 "Hg (Aug 14, 3:50 am)
Low75 °F (Aug 6, 4:20 am)30% (Aug 19, 11:20 am)29.65 "Hg (Aug 16, 2:20 pm)
Average84 °F65%29.75 "Hg
* Reported Aug 5 7:20 am — Aug 20 7:50 am, Rehovot. Weather by CustomWeather, © 2017

Note: Actual official high and low records may vary slightly from our data, if they occured in-between our weather recording intervals... More about our weather records

Advertising

Rehovot Weather History for the Previous 24 Hours

Scroll right to see more
 ConditionsComfort  
Time TempWeatherWind HumidityBarometerVisibility
7:50 am
Sun, Aug 20
81 °FSunny.2 mph66%29.83 "Hg10 mi
7:20 am79 °FSunny.3 mph70%29.83 "Hg10 mi
6:50 am77 °FSunny.5 mph74%29.83 "Hg10 mi
6:20 am79 °FSunny.3 mph70%29.83 "Hg10 mi
5:50 am79 °FClear.5 mph70%29.80 "Hg10 mi
5:20 am77 °FClear.5 mph74%29.83 "Hg10 mi
4:50 am77 °FClear.3 mph74%29.83 "Hg10 mi
4:20 am79 °FClear.3 mph70%29.83 "Hg10 mi
3:50 am79 °FClear.2 mph70%29.83 "Hg10 mi
3:20 am79 °FClear.3 mph70%29.83 "Hg10 mi
2:50 am79 °FClear.3 mph74%29.83 "Hg10 mi
2:20 am79 °FClear.5 mph70%29.83 "Hg10 mi
1:50 am81 °FClear.5 mph70%29.83 "Hg10 mi
1:20 am81 °FClear.6 mph70%29.83 "Hg10 mi
12:50 am81 °FClear.6 mph70%29.83 "Hg10 mi
12:20 am81 °FClear.7 mph70%29.86 "Hg10 mi
11:50 pm
Sat, Aug 19
81 °FClear.8 mph70%29.86 "Hg10 mi
11:20 pm81 °FClear.7 mph70%29.86 "Hg10 mi
10:50 pm82 °FClear.6 mph66%29.86 "Hg10 mi
10:20 pm82 °FClear.8 mph66%29.86 "Hg10 mi
9:50 pm82 °FClear.9 mph66%29.86 "Hg10 mi
9:20 pm82 °FClear.8 mph62%29.86 "Hg10 mi
8:50 pm84 °FClear.7 mph58%29.86 "Hg10 mi
8:20 pm84 °FClear.9 mph58%29.86 "Hg10 mi
7:50 pm84 °FClear.8 mph58%29.83 "Hg10 mi
7:20 pm86 °FClear.8 mph55%29.83 "Hg10 mi
6:50 pm86 °FSunny.10 mph55%29.83 "Hg10 mi
6:20 pm88 °FSunny.9 mph52%29.83 "Hg10 mi
5:50 pm88 °FSunny.12 mph52%29.83 "Hg10 mi
5:20 pm90 °FSunny.10 mph46%29.83 "Hg10 mi
4:50 pm91 °FSunny.10 mph44%29.83 "Hg10 mi
4:20 pm91 °FSunny.12 mph44%29.83 "Hg10 mi
3:50 pm91 °FPassing clouds.10 mph46%29.83 "HgN/A
3:20 pm91 °FSunny.12 mph41%29.86 "Hg10 mi
2:50 pm93 °FPassing clouds.9 mph39%29.83 "HgN/A
2:20 pm93 °FSunny.10 mph39%29.83 "Hg10 mi
1:50 pm93 °FSunny.12 mph39%29.86 "Hg10 mi
1:20 pm93 °FSunny.10 mph39%29.86 "Hg10 mi
12:50 pm93 °FSunny.10 mph36%29.86 "Hg10 mi
12:20 pm93 °FSunny.9 mph39%29.86 "Hg10 mi
11:50 am93 °FSunny.6 mph32%29.86 "Hg10 mi
11:20 am91 °FSunny.7 mph30%29.86 "Hg10 mi
10:50 am91 °FSunny.2 mph34%29.86 "Hg10 mi
9:50 am88 °FSunny.2 mph43%29.86 "Hg10 mi
9:20 am86 °FSunny.5 mph46%29.86 "Hg10 mi
Weather by CustomWeather, © 2017

See weather overviewHow to use our weather pages